[[{"header":{"parameterUnit":"m.s-1","parameterCategory":1,"la1":30.2992,"la2":30.254,"lo1":-89.0895,"lo2":-89.0443,"dy":0.0025,"dx":0.0025,"nx":19,"ny":19,"refTime":"2026-04-05T03:00:00:Z","depth":0,"parameterNumber":2,"parameterNumberName":"U-component_of_WINDS"},"data":[0,0,0,-0.1229,-0.1229,-0.1206,-0.1206,-0.1181,-0.118,0,0,0,0,0,0,0,0,0,0,0,-0.1238,-0.1238,-0.1229,-0.1228,-0.1206,-0.1206,-0.1181,-0.118,0,0,0,0,0,0,0,0,0,0,0,-0.1239,-0.1238,-0.1238,-0.1228,-0.1206,-0.1206,-0.1181,-0.1196,0,0,0,0,0,0,0,0,0,0,-0.1217,-0.1229,-0.1238,-0.1238,-0.1228,-0.1206,-0.1206,-0.1197,-0.1195,-0.1192,0,-0.1191,0,-0.1186,-0.1179,-0.1179,0,0,0,-0.1226,-0.1231,-0.1222,-0.1238,-0.1228,-0.1206,-0.1216,-0.1196,-0.1194,-0.119,-0.1191,-0.119,-0.1185,-0.1179,-0.1179,-0.1171,-0.1171,0,0,-0.1227,-0.1236,-0.1223,-0.1221,-0.1226,-0.1216,-0.1215,-0.1195,-0.1196,-0.1191,-0.1189,-0.1185,-0.1179,-0.1179,-0.1171,-0.1171,0,0,0,-0.1232,-0.1237,-0.1229,-0.1222,-0.1218,-0.1216,-0.1214,-0.1197,-0.1194,-0.1189,-0.1184,-0.1179,-0.1178,-0.117,-0.1171,-0.1183,0,0,0,-0.1233,-0.124,-0.1229,-0.1234,-0.1218,-0.1207,-0.1217,-0.1195,-0.1192,-0.1185,-0.1179,-0.1178,-0.117,-0.1171,-0.1182,-0.1187,0,0,0,-0.1239,-0.1241,-0.1239,-0.1235,-0.1226,-0.1208,-0.1203,-0.1194,-0.119,-0.1179,-0.1178,-0.117,-0.1171,-0.1182,-0.1187,-0.1187,0,0,0,-0.1248,-0.125,-0.1239,-0.124,-0.1226,-0.1215,-0.1203,-0.1195,-0.1187,-0.1179,-0.117,-0.1171,-0.1182,-0.1186,-0.1187,-0.119,-0.1192,0,0,-0.1256,-0.1252,-0.1251,-0.124,-0.1234,-0.1218,-0.1213,-0.1197,-0.1188,-0.1177,-0.1176,-0.1182,-0.1186,-0.1187,-0.1199,-0.1201,0,0,0,-0.1257,-0.1257,-0.1253,-0.1246,-0.1234,-0.1223,-0.1208,-0.1201,-0.1191,-0.1184,-0.1182,-0.1185,-0.1184,-0.1185,-0.1187,-0.1186,-0.1171,-0.1171,-0.1171,-0.1282,-0.1269,-0.1267,-0.1252,-0.1244,-0.1227,-0.122,-0.1208,-0.1198,-0.1197,-0.1194,-0.1203,-0.1205,-0.1206,-0.1205,-0.1195,-0.1195,-0.1195,-0.1195,-0.1293,-0.129,-0.1275,-0.1268,-0.1254,-0.1247,-0.1229,-0.1222,-0.1212,-0.1205,-0.1205,-0.1198,-0.1208,-0.1206,-0.1195,-0.1195,-0.1195,-0.1195,-0.1195,-0.1308,-0.1305,-0.1297,-0.1284,-0.1274,-0.1257,-0.1249,-0.1236,-0.1224,-0.1223,-0.1218,-0.1218,-0.1215,-0.1221,-0.1221,-0.1221,-0.1221,-0.1222,-0.1222,-0.1328,-0.1318,-0.1313,-0.1299,-0.1291,-0.128,-0.126,-0.1252,-0.1239,-0.1231,-0.1231,-0.122,-0.1211,-0.121,-0.1222,-0.1222,-0.1222,-0.1222,-0.1222,-0.1345,-0.1338,-0.133,-0.1323,-0.1303,-0.1294,-0.1277,-0.1261,-0.1252,-0.1248,-0.1236,-0.1232,-0.1227,-0.1226,-0.1224,-0.124,-0.124,-0.124,-0.124,-0.1358,-0.1353,-0.1341,-0.133,-0.1317,-0.13,-0.1289,-0.1272,-0.1254,-0.1247,-0.1243,-0.124,-0.1239,-0.1234,-0.1233,-0.1231,-0.1248,-0.1248,-0.1248,-0.1367,-0.136,-0.1355,-0.1337,-0.132,-0.1306,-0.1295,-0.128,-0.1258,-0.1248,-0.1242,-0.1241,-0.1235,-0.1234,-0.1226,-0.1224,-0.122,0,0]},{"header":{"parameterUnit":"m.s-1","parameterCategory":1,"la1":30.2992,"la2":30.254,"lo1":-89.0895,"lo2":-89.0443,"dy":0.0025,"dx":0.0025,"nx":19,"ny":19,"refTime":"2026-04-05T03:00:00:Z","depth":0,"parameterNumber":3,"parameterNumberName":"V-component_of_WINDS"},"data":[0,0,0,-5.6709,-5.6712,-5.6824,-5.6824,-5.6972,-5.6973,0,0,0,0,0,0,0,0,0,0,0,-5.668,-5.6682,-5.6709,-5.6712,-5.6824,-5.6824,-5.6971,-5.6973,0,0,0,0,0,0,0,0,0,0,0,-5.668,-5.6681,-5.6683,-5.6712,-5.6824,-5.6824,-5.6971,-5.6884,0,0,0,0,0,0,0,0,0,0,-5.6775,-5.6753,-5.6681,-5.6683,-5.6713,-5.6824,-5.6824,-5.688,-5.689,-5.6923,0,-5.6956,0,-5.6967,-5.6983,-5.6984,0,0,0,-5.6708,-5.6745,-5.6772,-5.6683,-5.6714,-5.6823,-5.6772,-5.6886,-5.6896,-5.6936,-5.6958,-5.6963,-5.697,-5.6984,-5.6985,-5.72,-5.7201,0,0,-5.6702,-5.6702,-5.6764,-5.6779,-5.6764,-5.6769,-5.6776,-5.6892,-5.6915,-5.6959,-5.6967,-5.6972,-5.6985,-5.6987,-5.7199,-5.72,0,0,0,-5.6687,-5.6698,-5.6722,-5.6773,-5.6793,-5.6772,-5.678,-5.691,-5.6918,-5.6968,-5.6974,-5.6986,-5.6988,-5.7197,-5.7199,-5.7262,0,0,0,-5.6683,-5.6689,-5.6719,-5.672,-5.6791,-5.6853,-5.6795,-5.691,-5.6923,-5.6973,-5.6986,-5.699,-5.7196,-5.7198,-5.7257,-5.7291,0,0,0,-5.6671,-5.6688,-5.6706,-5.672,-5.6769,-5.6851,-5.6866,-5.6912,-5.6926,-5.6984,-5.699,-5.7195,-5.7198,-5.7253,-5.7284,-5.735,0,0,0,-5.6659,-5.6756,-5.6707,-5.6818,-5.6768,-5.689,-5.6865,-5.6955,-5.7011,-5.6987,-5.7196,-5.7199,-5.7252,-5.728,-5.7346,-5.7406,-5.7432,0,0,-5.6782,-5.6771,-5.6836,-5.6796,-5.6928,-5.6873,-5.7013,-5.7062,-5.7064,-5.7154,-5.7159,-5.7259,-5.7284,-5.7349,-5.757,-5.759,0,0,0,-5.6876,-5.6923,-5.6958,-5.7014,-5.7057,-5.7097,-5.7126,-5.7145,-5.7222,-5.7112,-5.7299,-5.7314,-5.7352,-5.7381,-5.7399,-5.7432,-5.7212,-5.7212,-5.7212,-5.7049,-5.7052,-5.7162,-5.718,-5.7234,-5.7266,-5.731,-5.7341,-5.7323,-5.7368,-5.7395,-5.7529,-5.7563,-5.7576,-5.7611,-5.7426,-5.7426,-5.7426,-5.7426,-5.7231,-5.73,-5.728,-5.738,-5.7382,-5.7465,-5.7499,-5.7485,-5.7562,-5.7508,-5.7542,-5.7484,-5.7598,-5.7629,-5.7431,-5.743,-5.743,-5.7429,-5.7429,-5.7346,-5.738,-5.7404,-5.749,-5.7554,-5.7567,-5.7644,-5.7642,-5.7639,-5.7673,-5.7703,-5.7702,-5.7702,-5.7687,-5.7688,-5.7688,-5.7689,-5.7689,-5.7689,-5.7456,-5.7482,-5.7549,-5.7607,-5.7645,-5.7694,-5.7729,-5.7766,-5.7806,-5.7798,-5.7798,-5.7778,-5.7609,-5.7567,-5.7697,-5.7695,-5.7694,-5.7694,-5.7693,-5.7641,-5.7601,-5.7703,-5.7743,-5.7812,-5.7878,-5.7876,-5.7952,-5.7981,-5.802,-5.7994,-5.7868,-5.7856,-5.7842,-5.7808,-5.7992,-5.7992,-5.7992,-5.7992,-5.774,-5.7735,-5.7842,-5.7905,-5.7966,-5.7976,-5.8092,-5.8122,-5.8144,-5.8163,-5.8136,-5.809,-5.8076,-5.8072,-5.8053,-5.8021,-5.8255,-5.8255,-5.8256,-5.7855,-5.7856,-5.7957,-5.7983,-5.8038,-5.8085,-5.8195,-5.8267,-5.8284,-5.8266,-5.8178,-5.8167,-5.8093,-5.8068,-5.8048,-5.8019,-5.796,0,0]}]]